STARLINK-3884 (52497 NORAD) Tracking and Keplerian Element Data

This shows tracking and keplerian element data for the satellite.

Feedback or suggestion? Click here.




ElementValue
Catalog52497
NameSTARLINK-3884
Epoch Orbit130
Epoch Day167.08334491
Epoch Year2022
RAAN64.9674
Inclination53.2179
Eccentricity0.0001709
Argument of Perigee35.8306
Mean Anonmoly119.377
Mean Motion15.73202573
Decay Rate0.00085358
L11 52497U 22049AY 22167.08334491 .00085358 00000+0 60636-3 0 9996
L22 52497 53.2179 64.9674 0001709 35.8306 119.3770 15.73202573 1301

Live tracking and technical data element details for STARLINK-3884 (NORAD 52497). STARLINK-3884 can be tracked NOW for your location showing map with azimuth and elevation plus other details from your city location.

Track the satellite on the map from your city or location and see movement details for azimuth, elevation, latitude, longitude, range, height, and movement on the map or in text.







IsCatalogInMostPopularTable: catalog: 52497, numindb: 1
Update: records affected: 1



GetName: 52497 STARLINK-3884

Hit Count: updated at: Sat, 25 Jun 2022 05:05:43 GMT